Location: Camps Bay
(33.9517°S, 18.3844°E)
Time: 10:50:37
(UTC+00:00)

Cosmos 1553 Rocket - Pass Details

Date: 18 January 2020
Orbit: 941 x 1008 km, 82.9° (Epoch: 16 February)

Event Time Altitude Azimuth Distance (km) Brightness Sun altitude
Rises 01:40:07 0° 194° (SSW) 3,671 7.5 -22.9°
Reaches altitude 10° 01:42:42 10° 199° (SSW) 2,728 6.7 -22.6°
Maximum altitude 01:48:39 48° 271° (W) 1,262 4.3 -21.7°
Enters shadow 01:50:11 40° 309° (NW) 1,410 4.3 -21.5°
